Innisfail, Alberta

5:49 AM MST on February 20, 2018 (GMT -0700)
Innisfail

Weather History for 71878 - July, 2013

Change the Weather History Date:

Friday, July 5, 2013

  Actual Average Record
Temperature  
Mean Temperature 60 °F -  
Max Temperature 69 °F 73 °F - ()
Min Temperature 51 °F 48 °F - ()
Degree Days  
Heating Degree Days 5    
Growing Degree Days 10 (Base 50)    
Moisture  
Dew Point 50 °F    
Average Humidity 71    
Maximum Humidity 94    
Minimum Humidity 47    
Precipitation  
Precipitation 0.31 in 0.11 in - ()
Sea Level Pressure  
Sea Level Pressure 29.92 in    
Wind  
Wind Speed 7 mph ()    
Max Wind Speed 14 mph    
Max Gust Speed 17 mph    
Visibility 14.2 miles    
Events Rain , Thunderstorm    
T = Trace of Precipitation, MM = Missing Value Source: Averaged Metar Reports

Daily Weather History Graph

Daily Weather History Graph

Search for Another Location

Airport or City:

Trip Planner

Search our weather history database for the weather conditions in past years. The results will help you decide how hot, cold, wet, or windy it might be!

Date:

Astronomy

Jul. 05, 2013 Rise Set
Actual Time 5:22 AM MDT 9:57 PM MDT
Civil Twilight 4:34 AM MDT 10:45 PM MDT
Nautical Twilight 3:19 AM MDT 11:59 PM MDT
Astronomical Twilight 2:12 AM MDT 1:07 AM MDT
Moon 3:33 AM MDT (7/5) 7:48 PM MDT (7/5)
Length of Visible Light 18h 11m
Length of Day
16h 35m
Waning Crescent, 6% of the Moon is Illuminated
Jul 5
Waning Crescent
Jul 8
New
Jul 15
First Quarter
Jul 22
Full
Jul 29
Last Quarter

Hourly Weather History & Observations

Time (MDT) Temp. Dew Point Humidity Pressure Visibility Wind Dir Wind Speed Gust Speed Precip Events Conditions
12:00 AM 56 °F 51 °F 80% 29.91 in 15 mi North 13.8 mph - - Rain Light Rain Showers
12:00 AM 55.4 °F 51.8 °F 88% 29.91 in 15.0 mi North 11.5 mph 17.3 mph N/A   Mostly Cloudy
1:00 AM 55.4 °F 51.8 °F 88% 29.89 in 15.0 mi WNW 9.2 mph - N/A   Mostly Cloudy
2:00 AM 53.6 °F 51.8 °F 94% 29.91 in 15.0 mi WNW 11.5 mph - N/A   Mostly Cloudy
3:00 AM 53.6 °F 51.8 °F 94% 29.95 in 15.0 mi NNW 11.5 mph - N/A   Mostly Cloudy
4:00 AM 53.6 °F 51.8 °F 94% 29.95 in 15.0 mi NNW 4.6 mph - N/A   Mostly Cloudy
5:00 AM 53.6 °F 50.0 °F 88% 29.95 in 15.0 mi NNW 9.2 mph - N/A   Mostly Cloudy
6:00 AM 52 °F 49 °F 85% 29.95 in 15 mi NNW 4.6 mph - -   Scattered Clouds
6:00 AM 51.8 °F 48.2 °F 88% 29.95 in 15.0 mi WNW 5.8 mph - N/A   Partly Cloudy
7:00 AM 53.6 °F 50.0 °F 88% 29.95 in 15.0 mi West 4.6 mph - N/A   Partly Cloudy
8:00 AM 55.4 °F 50.0 °F 82% 29.96 in 15.0 mi WNW 9.2 mph - N/A   Scattered Clouds
9:00 AM 57.2 °F 48.2 °F 72% 29.95 in 15.0 mi NNW 5.8 mph - N/A   Scattered Clouds
10:00 AM 60.8 °F 48.2 °F 63% 29.95 in 15.0 mi NW 11.5 mph - N/A   Partly Cloudy
11:00 AM 60.8 °F 48.2 °F 63% 29.94 in 15.0 mi NW 9.2 mph - N/A   Partly Cloudy
12:00 PM 63 °F 48 °F 47% 29.93 in 15 mi NNW 5.8 mph - -   Scattered Clouds
12:00 PM 62.6 °F 48.2 °F 59% 29.93 in 15.0 mi NNW 5.8 mph - N/A   Partly Cloudy
1:00 PM 64.4 °F 48.2 °F 56% 29.92 in 15.0 mi WNW 6.9 mph - N/A   Scattered Clouds
2:00 PM 66.2 °F 48.2 °F 52% 29.92 in 15.0 mi North 5.8 mph - N/A   Mostly Cloudy
3:00 PM 66.2 °F 46.4 °F 49% 29.90 in 15.0 mi Calm Calm - N/A   Mostly Cloudy
4:00 PM 66.2 °F 46.4 °F 49% 29.91 in 15.0 mi Calm Calm - N/A   Overcast
5:00 PM 66.2 °F 50.0 °F 56% 29.90 in 15.0 mi North 5.8 mph - N/A   Mostly Cloudy
6:00 PM 65 °F 51 °F 51% 29.91 in 15 mi NW 2.3 mph - -   Scattered Clouds
6:00 PM 64.4 °F 51.8 °F 64% 29.91 in 15.0 mi NW 2.3 mph - N/A   Mostly Cloudy
7:00 PM 66.2 °F 48.2 °F 52% 29.90 in 15.0 mi Calm Calm - N/A   Mostly Cloudy
8:00 PM 64.4 °F 51.8 °F 64% 29.90 in 15.0 mi North 2.3 mph - N/A   Mostly Cloudy
9:00 PM 62.6 °F 53.6 °F 72% 29.89 in 15.0 mi NW 3.5 mph - N/A   Mostly Cloudy
10:00 PM 59.0 °F 51.8 °F 77% 29.91 in 15.0 mi West 4.6 mph - N/A   Mostly Cloudy
11:00 PM 59.0 °F 51.8 °F 77% 29.93 in 15.0 mi West 5.8 mph - N/A   Overcast
11:22 PM - - N/A% - 10.0 mi WNW 11.5 mph 17.3 mph N/A Rain Light Rain Showers
11:44 PM - - N/A% - 6.0 mi NW 11.5 mph 17.3 mph N/A Rain , Thunderstorm Thunderstorms and Rain
11:49 PM - - N/A% - 3.0 mi NNW 11.5 mph 17.3 mph N/A Rain , Thunderstorm Heavy Thunderstorms and Rain